DW9280 Weather Reports


Display with metric or nautical units.
time (UTC)temp
F
wind
direction
speed
MPH
gust
MPH
rain 1hr
in
rain 24hr
in
rain mn
in
humidity
%
barometer
mb
20260507025904 45 13 0.0 3.0 0.00 0.00 0.00 89 1014.1
20260507025504 45 13 0.0 3.0 0.00 0.00 0.00 89 1014.1
20260507025404 45 12 1.0 3.0 0.00 0.00 0.00 89 1014.1
20260507025004 45 12 1.0 4.0 0.00 0.00 0.00 89 1014.1
20260507024905 45 12 1.0 4.0 0.00 0.00 0.00 89 1014.1
20260507024656 45 11 2.0 4.0 0.00 0.00 0.00 90 1014.1
20260507024626 45 12 2.0 4.0 0.00 0.00 0.00 90 1014.1
20260507024002 45 12 2.0 4.0 0.00 0.00 0.00 90 1014.0
20260507023906 45 13 2.0 4.0 0.00 0.00 0.00 90 1014.0
20260507023504 45 5 1.0 4.0 0.00 0.00 0.00 90 1014.0
20260507023402 45 5 1.0 4.0 0.00 0.00 0.00 90 1014.0
20260507023004 45 9 1.0 4.0 0.00 0.00 0.00 90 1014.0
20260507022903 45 9 1.0 4.0 0.00 0.00 0.00 90 1014.0
20260507022502 45 14 1.0 3.0 0.00 0.00 0.00 90 1014.0
20260507022402 45 14 1.0 3.0 0.00 0.00 0.00 90 1014.0
20260507022004 45 14 1.0 4.0 0.00 0.00 0.00 90 1014.0
20260507021906 45 14 1.0 4.0 0.00 0.00 0.00 90 1014.0
20260507021503 45 15 1.0 4.0 0.00 0.00 0.00 90 1013.9
20260507021405 45 15 1.0 4.0 0.00 0.00 0.00 90 1013.9
20260507021003 44 16 1.0 4.0 0.00 0.00 0.00 90 1013.9
20260507020903 44 16 1.0 4.0 0.00 0.00 0.00 90 1013.9
20260507020503 44 24 1.0 4.0 0.00 0.00 0.00 90 1013.9
20260507020402 44 24 0.0 4.0 0.00 0.00 0.00 90 1013.9
20260507020003 44 26 0.0 3.0 0.00 0.00 0.00 89 1013.8
20260507015904 44 26 0.0 3.0 0.00 0.00 0.00 89 1013.9
20260507015501 44 28 0.0 0.0 0.00 0.00 0.00 89 1013.8
20260507015402 44 28 0.0 0.0 0.00 0.00 0.00 89 1013.8
20260507015006 44 28 0.0 0.0 0.00 0.00 0.00 89 1013.8
20260507014904 44 28 0.0 0.0 0.00 0.00 0.00 89 1013.8
20260507014503 44 28 0.0 0.0 0.00 0.00 0.00 88 1013.8
20260507014403 44 28 0.0 0.0 0.00 0.00 0.00 88 1013.8
20260507014004 44 28 0.0 0.0 0.00 0.00 0.00 88 1013.8
20260507013904 44 28 0.0 0.0 0.00 0.00 0.00 88 1013.8
20260507013501 44 28 0.0 0.0 0.00 0.00 0.00 88 1013.7
20260507013403 44 28 0.0 0.0 0.00 0.00 0.00 88 1013.7
20260507013154 45 28 0.0 0.0 0.00 0.00 0.00 88 1013.7
20260507013126 45 28 0.0 0.0 0.00 0.00 0.00 88 1013.7
20260507012501 45 28 0.0 0.0 0.00 0.00 0.00 88 1013.7
20260507012403 45 28 0.0 0.0 0.00 0.00 0.00 88 1013.7
20260507012004 45 28 0.0 0.0 0.00 0.00 0.00 88 1013.7
20260507011904 45 28 0.0 0.0 0.00 0.00 0.00 87 1013.7
20260507011504 45 28 0.0 0.0 0.00 0.00 0.00 87 1013.7
20260507011402 45 28 0.0 0.0 0.00 0.00 0.00 87 1013.7
20260507011003 45 28 0.0 0.0 0.00 0.00 0.00 87 1013.7
20260507010904 45 28 0.0 0.0 0.00 0.00 0.00 87 1013.6
20260507010502 45 28 0.0 0.0 0.00 0.00 0.00 87 1013.6
20260507010402 45 28 0.0 0.0 0.00 0.00 0.00 87 1013.6
20260507010003 46 28 0.0 2.0 0.00 0.00 0.00 87 1013.7
20260507005905 46 28 0.0 2.0 0.00 0.00 0.00 87 1013.6
20260507005504 46 28 0.0 3.0 0.00 0.00 0.00 87 1013.6
20260507005404 46 28 1.0 3.0 0.00 0.00 0.00 87 1013.6
20260507005157 46 28 1.0 3.0 0.00 0.00 0.00 87 1013.6
20260507005128 46 28 1.0 3.0 0.00 0.00 0.00 87 1013.6
20260507004504 46 28 1.0 4.0 0.00 0.00 0.00 87 1013.6
20260507004405 46 28 1.0 4.0 0.00 0.00 0.00 87 1013.7
20260507004156 46 28 2.0 5.0 0.00 0.00 0.00 87 1013.6
20260507004127 46 28 2.0 5.0 0.00 0.00 0.00 87 1013.6
20260507003503 46 33 2.0 5.0 0.00 0.00 0.00 87 1013.6
20260507003404 46 32 2.0 5.0 0.00 0.00 0.00 87 1013.7
20260507003002 46 29 2.0 4.0 0.00 0.00 0.00 87 1013.6
20260507002905 46 29 2.0 4.0 0.00 0.00 0.00 87 1013.6
20260507002503 46 30 2.0 4.0 0.00 0.00 0.00 87 1013.6
20260507002403 46 29 2.0 4.0 0.00 0.00 0.00 87 1013.6
20260507002200 46 18 2.0 4.0 0.00 0.00 0.00 86 1013.6
20260507002129 46 22 2.0 4.0 0.00 0.00 0.00 87 1013.6
20260507001503 46 23 2.0 4.0 0.00 0.00 0.00 86 1013.6
20260507001402 46 24 1.0 4.0 0.00 0.00 0.00 86 1013.5
20260507001003 46 31 1.0 4.0 0.00 0.00 0.00 86 1013.5
20260507000904 46 30 1.0 4.0 0.00 0.00 0.00 86 1013.5
20260507000505 46 26 1.0 4.0 0.00 0.00 0.00 86 1013.5
20260507000405 46 26 1.0 4.0 0.00 0.00 0.00 86 1013.6
20260507000004 46 26 2.0 4.0 0.00 0.00 0.00 86 1013.5
20260506235907 46 26 2.0 4.0 0.00 0.00 0.00 85 1013.6
20260506235503 47 21 1.0 5.0 0.00 0.00 0.00 85 1013.7
20260506235404 47 22 1.0 5.0 0.00 0.00 0.00 85 1013.6
20260506235002 47 24 0.0 5.0 0.00 0.00 0.00 85 1013.6
20260506234904 47 24 0.0 5.0 0.00 0.00 0.00 85 1013.6
20260506234504 47 22 0.0 3.0 0.00 0.00 0.00 85 1013.6
20260506234403 47 22 0.0 3.0 0.00 0.00 0.00 85 1013.6
20260506234002 47 22 1.0 3.0 0.00 0.00 0.00 84 1013.6
20260506233904 47 22 1.0 4.0 0.00 0.00 0.00 84 1013.6
20260506233504 47 26 1.0 4.0 0.00 0.00 0.00 84 1013.6
20260506233404 47 26 1.0 4.0 0.00 0.00 0.00 84 1013.5
20260506233002 47 26 1.0 4.0 0.00 0.00 0.00 84 1013.6
20260506232905 47 22 0.0 4.0 0.00 0.00 0.00 84 1013.6
20260506232503 47 25 1.0 4.0 0.00 0.00 0.00 83 1013.6
20260506232405 47 25 1.0 4.0 0.00 0.00 0.00 83 1013.6
20260506232003 47 25 1.0 4.0 0.00 0.00 0.00 83 1013.6
20260506231905 47 25 1.0 4.0 0.00 0.00 0.00 83 1013.6
20260506231702 48 24 2.0 5.0 0.00 0.00 0.00 83 1013.5
20260506231627 48 24 2.0 5.0 0.00 0.00 0.00 83 1013.5
20260506231003 48 19 2.0 5.0 0.00 0.00 0.00 82 1013.5
20260506230954 48 29 2.0 7.0 0.00 0.00 0.00 82 1013.5
20260506230937 48 19 2.0 5.0 0.00 0.00 0.00 82 1013.5
20260506230626 48 29 2.0 6.0 0.00 0.00 0.00 82 1013.4
20260506230003 48 13 2.0 7.0 0.00 0.00 0.00 82 1013.4
20260506225904 48 13 2.0 7.0 0.00 0.00 0.00 82 1013.5
20260506225503 48 9 2.0 7.0 0.00 0.00 0.00 82 1013.4
20260506225403 48 19 2.0 5.0 0.00 0.00 0.00 82 1013.4
20260506225003 48 23 2.0 5.0 0.00 0.00 0.00 82 1013.4
20260506224904 48 26 2.0 5.0 0.00 0.00 0.00 82 1013.4
20260506224502 48 12 2.0 6.0 0.00 0.00 0.00 82 1013.4
20260506224403 48 11 2.0 6.0 0.00 0.00 0.00 82 1013.4
20260506224002 49 35 3.0 6.0 0.00 0.00 0.00 82 1013.4
20260506223905 49 30 2.0 6.0 0.00 0.00 0.00 82 1013.4
20260506223503 49 35 3.0 9.0 0.00 0.00 0.00 82 1013.4
20260506223403 49 34 3.0 10.0 0.00 0.00 0.00 82 1013.3
20260506223001 49 55 4.0 10.0 0.00 0.00 0.00 82 1013.3
20260506222906 49 11 4.0 10.0 0.00 0.00 0.00 82 1013.3
20260506222505 49 40 3.0 10.0 0.00 0.00 0.00 82 1013.3
20260506222404 49 10 3.0 9.0 0.00 0.00 0.00 82 1013.3
20260506222002 49 44 2.0 7.0 0.00 0.00 0.00 83 1013.3
20260506221903 49 24 2.0 7.0 0.00 0.00 0.00 82 1013.3
20260506221503 49 27 2.0 7.0 0.00 0.00 0.00 82 1013.2
20260506221402 49 355 2.0 7.0 0.00 0.00 0.00 82 1013.2
20260506221221 49 5 2.0 5.0 0.00 0.00 0.00 82 1013.2
20260506221142 49 19 2.0 5.0 0.00 0.00 0.00 82 1013.2
20260506220502 49 355 2.0 5.0 0.00 0.00 0.00 82 1013.2
20260506220406 49 16 2.0 4.0 0.00 0.00 0.00 82 1013.1
20260506220002 49 14 2.0 4.0 0.00 0.00 0.00 81 1013.2
20260506215906 49 24 1.0 4.0 0.00 0.00 0.00 81 1013.1
20260506215503 49 5 2.0 5.0 0.00 0.00 0.00 81 1013.0
20260506215451 50 11 2.0 5.0 0.00 0.00 0.00 80 1013.0
20260506215435 49 5 2.0 5.0 0.00 0.00 0.00 80 1013.0
20260506215129 50 5 2.0 5.0 0.00 0.00 0.00 80 1013.0
20260506214504 50 5 2.0 5.0 0.00 0.00 0.00 79 1013.0
20260506214404 50 355 2.0 5.0 0.00 0.00 0.00 79 1013.0
20260506214002 50 5 3.0 5.0 0.00 0.00 0.00 79 1013.0
20260506213904 50 24 3.0 8.0 0.00 0.00 0.00 78 1013.0
20260506213503 50 15 2.0 8.0 0.00 0.00 0.00 78 1012.9
20260506213404 50 27 2.0 8.0 0.00 0.00 0.00 78 1012.9
20260506213003 50 355 2.0 8.0 0.00 0.00 0.00 77 1012.9
20260506212905 50 0 2.0 6.0 0.00 0.00 0.00 76 1012.9
20260506212504 50 27 2.0 5.0 0.00 0.00 0.00 76 1012.9
20260506212402 50 27 2.0 5.0 0.00 0.00 0.00 76 1012.9
20260506212003 51 11 2.0 6.0 0.00 0.00 0.00 76 1012.8
20260506211906 51 11 2.0 7.0 0.00 0.00 0.00 75 1012.8
20260506211503 51 355 2.0 9.0 0.00 0.00 0.00 75 1012.8
20260506211403 51 26 2.0 9.0 0.00 0.00 0.00 75 1012.8
20260506211002 51 23 2.0 9.0 0.00 0.00 0.00 75 1012.7
20260506210915 51 15 2.0 9.0 0.00 0.00 0.00 75 1012.7
20260506210503 51 355 3.0 8.0 0.00 0.00 0.00 75 1012.7
20260506210403 51 20 3.0 8.0 0.00 0.00 0.00 75 1012.7
20260506210000 51 28 3.0 11.0 0.00 0.00 0.00 75 1012.7
20260506205904 51 11 3.0 11.0 0.00 0.00 0.00 75 1012.6
20260506205457 51 5 3.0 11.0 0.00 0.00 0.00 75 1012.7
20260506205403 51 37 3.0 11.0 0.00 0.00 0.00 75 1012.6
20260506204958 51 19 3.0 9.0 0.00 0.00 0.00 75 1012.6
20260506204904 51 355 3.0 9.0 0.00 0.00 0.00 75 1012.5
20260506204456 52 36 4.0 9.0 0.00 0.00 0.00 74 1012.5
20260506204403 52 49 4.0 9.0 0.00 0.00 0.00 74 1012.5
20260506203954 52 18 3.0 11.0 0.00 0.00 0.00 74 1012.5
20260506203912 52 24 3.0 11.0 0.00 0.00 0.00 74 1012.4
20260506203453 52 53 3.0 11.0 0.00 0.00 0.00 74 1012.5
20260506203403 52 0 2.0 11.0 0.00 0.00 0.00 74 1012.4
20260506202951 52 20 2.0 8.0 0.00 0.00 0.00 73 1012.4
20260506202903 52 15 2.0 7.0 0.00 0.00 0.00 73 1012.4
20260506202452 52 355 2.0 7.0 0.00 0.00 0.00 73 1012.4
20260506202404 52 26 2.0 7.0 0.00 0.00 0.00 72 1012.4
20260506201951 52 21 2.0 7.0 0.00 0.00 0.00 72 1012.3
20260506201904 53 5 2.0 7.0 0.00 0.00 0.00 71 1012.3
20260506201448 53 42 3.0 6.0 0.00 0.00 0.00 71 1012.3
20260506201407 53 43 3.0 6.0 0.00 0.00 0.00 71 1012.3
20260506200945 53 5 3.0 7.0 0.00 0.00 0.00 71 1012.3
20260506200905 53 20 3.0 7.0 0.00 0.00 0.00 71 1012.3
20260506200443 53 0 4.0 9.0 0.00 0.00 0.00 70 1012.3
20260506200403 53 14 4.0 9.0 0.00 0.00 0.00 70 1012.3
20260506195943 53 30 4.0 11.0 0.00 0.00 0.00 70 1012.3
20260506195905 53 30 4.0 11.0 0.00 0.00 0.00 70 1012.3
20260506195443 53 40 4.0 11.0 0.00 0.00 0.00 70 1012.2
20260506195403 53 21 4.0 11.0 0.00 0.00 0.00 70 1012.2
20260506194944 53 26 4.0 9.0 0.00 0.00 0.00 70 1012.1
20260506194906 53 15 4.0 9.0 0.00 0.00 0.00 70 1012.1
20260506194701 53 34 4.0 10.0 0.00 0.00 0.00 70 1012.0
20260506194623 53 39 4.0 9.0 0.00 0.00 0.00 70 1012.0
20260506193942 53 42 5.0 11.0 0.00 0.00 0.00 70 1012.1
20260506193903 53 347 5.0 11.0 0.00 0.00 0.00 70 1012.1
20260506193442 53 44 5.0 11.0 0.00 0.00 0.00 69 1011.9
20260506193402 53 30 5.0 11.0 0.00 0.00 0.00 69 1011.9
20260506192939 53 58 4.0 13.0 0.00 0.00 0.00 69 1011.9
20260506192903 53 16 4.0 13.0 0.00 0.00 0.00 70 1011.9
20260506192438 53 17 4.0 13.0 0.00 0.00 0.00 70 1011.7
20260506192403 53 0 4.0 13.0 0.00 0.00 0.00 70 1011.7
20260506192159 54 40 4.0 10.0 0.00 0.00 0.00 70 1011.7
20260506192120 54 30 4.0 10.0 0.00 0.00 0.00 70 1011.7
20260506191438 54 5 5.0 11.0 0.00 0.00 0.00 70 1011.7
20260506191405 54 5 5.0 11.0 0.00 0.00 0.00 70 1011.7
20260506190905 54 45 5.0 11.0 0.00 0.00 0.00 70 1011.6
20260506190435 54 13 4.0 13.0 0.00 0.00 0.00 70 1011.5
20260506190403 54 20 4.0 13.0 0.00 0.00 0.00 70 1011.5
20260506190200 54 17 4.0 13.0 0.00 0.00 0.00 70 1011.4
20260506190120 54 30 4.0 13.0 0.00 0.00 0.00 70 1011.4
20260506185704 54 40 4.0 12.0 0.00 0.00 0.00 70 1011.3
20260506185620 54 85 4.0 12.0 0.00 0.00 0.00 70 1011.3
20260506184932 54 355 5.0 12.0 0.00 0.00 0.00 71 1011.2
20260506184904 54 26 5.0 12.0 0.00 0.00 0.00 71 1011.2
20260506184431 54 24 6.0 13.0 0.00 0.00 0.00 70 1011.2
20260506184403 54 45 6.0 13.0 0.00 0.00 0.00 70 1011.2
20260506183930 54 54 6.0 13.0 0.00 0.00 0.00 71 1011.1
20260506183905 54 348 6.0 13.0 0.00 0.00 0.00 71 1011.1
20260506183431 54 34 5.0 15.0 0.00 0.00 0.00 71 1011.0
20260506183405 54 36 5.0 15.0 0.00 0.00 0.00 71 1011.0
20260506182932 54 11 6.0 15.0 0.00 0.00 0.00 71 1011.0
20260506182905 54 355 6.0 15.0 0.00 0.00 0.00 71 1011.0
20260506182431 54 16 6.0 14.0 0.00 0.00 0.00 71 1011.0
20260506182403 55 17 6.0 14.0 0.00 0.00 0.00 71 1011.0
20260506181931 55 38 6.0 14.0 0.00 0.00 0.00 71 1011.0
20260506181905 55 340 6.0 14.0 0.00 0.00 0.00 71 1011.0
20260506181431 55 9 5.0 13.0 0.00 0.00 0.00 71 1010.8
20260506181402 55 16 5.0 13.0 0.00 0.00 0.00 71 1010.8
20260506180933 55 31 6.0 13.0 0.00 0.00 0.00 71 1010.8
20260506180904 55 339 6.0 13.0 0.00 0.00 0.00 71 1010.8
20260506180431 55 336 6.0 12.0 0.00 0.00 0.00 70 1010.8
20260506180406 55 81 6.0 12.0 0.00 0.00 0.00 70 1010.8
20260506175932 55 340 6.0 12.0 0.00 0.00 0.00 69 1010.7
20260506175905 55 345 6.0 12.0 0.00 0.00 0.00 69 1010.7
20260506175432 55 0 4.0 14.0 0.00 0.00 0.00 68 1010.6
20260506175403 56 320 4.0 14.0 0.00 0.00 0.00 68 1010.6
20260506174932 55 28 2.0 14.0 0.00 0.00 0.00 65 1010.6
20260506174905 55 321 2.0 14.0 0.00 0.00 0.00 65 1010.6
20260506174434 55 335 1.0 4.0 0.00 0.00 0.00 65 1010.5
20260506174404 55 355 1.0 4.0 0.00 0.00 0.00 65 1010.5
20260506174200 56 30 2.0 6.0 0.00 0.00 0.00 64 1010.5
20260506174120 56 30 2.0 6.0 0.00 0.00 0.00 64 1010.5
20260506173657 56 40 3.0 6.0 0.00 0.00 0.00 64 1010.4
20260506173619 56 38 3.0 6.0 0.00 0.00 0.00 64 1010.4
20260506172931 56 45 3.0 6.0 0.00 0.00 0.00 63 1010.4
20260506172903 56 29 3.0 6.0 0.00 0.00 0.00 63 1010.4
20260506172431 56 51 3.0 8.0 0.00 0.00 0.00 63 1010.4
20260506172403 56 34 3.0 8.0 0.00 0.00 0.00 63 1010.4
20260506171930 56 17 3.0 9.0 0.00 0.00 0.00 61 1010.3
20260506171905 56 72 3.0 9.0 0.00 0.00 0.00 61 1010.3
20260506171617 56 55 2.0 6.0 0.00 0.00 0.00 61 1010.2
20260506171545 56 98 2.0 9.0 0.00 0.00 0.00 61 1010.2
20260506171534 56 45 2.0 9.0 0.00 0.00 0.00 61 1010.2
20260506171303 56 32 2.0 6.0 0.00 0.00 0.00 61 1010.3
20260506171208 56 32 2.0 6.0 0.00 0.00 0.00 61 1010.3
20260506170622 56 54 2.0 6.0 0.00 0.00 0.00 61 1010.2
20260506170151 56 54 3.0 9.0 0.00 0.00 0.00 61 1010.2
20260506170121 56 55 3.0 8.0 0.00 0.00 0.00 60 1010.2
20260506165427 56 29 3.0 9.0 0.00 0.00 0.00 60 1010.2
20260506165404 56 32 3.0 9.0 0.00 0.00 0.00 61 1010.2
20260506164924 56 57 3.0 9.0 0.00 0.00 0.00 61 1010.2
20260506164906 56 29 3.0 9.0 0.00 0.00 0.00 61 1010.2
20260506164424 56 28 3.0 9.0 0.00 0.00 0.00 61 1010.2
20260506164403 56 29 3.0 9.0 0.00 0.00 0.00 61 1010.2
20260506163917 56 22 4.0 10.0 0.00 0.00 0.00 62 1010.3
20260506163902 56 19 4.0 10.0 0.00 0.00 0.00 62 1010.3
20260506163417 56 41 4.0 10.0 0.00 0.00 0.00 61 1010.2
20260506163403 56 21 4.0 10.0 0.00 0.00 0.00 61 1010.2
20260506162914 56 18 4.0 9.0 0.00 0.00 0.00 61 1010.2
20260506162906 56 17 4.0 9.0 0.00 0.00 0.00 61 1010.2
20260506162413 56 37 4.0 10.0 0.00 0.00 0.00 61 1010.2
20260506162403 56 40 4.0 10.0 0.00 0.00 0.00 61 1010.2
20260506161905 56 41 4.0 11.0 0.00 0.00 0.00 60 1010.2
20260506161407 56 41 4.0 13.0 0.00 0.00 0.00 60 1010.2
20260506161403 56 44 4.0 13.0 0.00 0.00 0.00 60 1010.2
20260506161023 57 351 4.0 12.0 0.00 0.00 0.00 60 1010.2
20260506160959 57 44 5.0 13.0 0.00 0.00 0.00 60 1010.2
20260506160953 57 51 5.0 13.0 0.00 0.00 0.00 60 1010.2
20260506160613 57 333 4.0 12.0 0.00 0.00 0.00 60 1010.2
20260506155906 57 53 4.0 12.0 0.00 0.00 0.00 59 1010.2
20260506155700 57 63 5.0 11.0 0.00 0.00 0.00 58 1010.1
20260506155611 57 59 5.0 11.0 0.00 0.00 0.00 58 1010.1
20260506154903 57 34 5.0 12.0 0.00 0.00 0.00 57 1010.2
20260506154404 57 34 4.0 14.0 0.00 0.00 0.00 57 1010.1
20260506153904 57 19 4.0 14.0 0.00 0.00 0.00 55 1010.1
20260506153713 58 13 4.0 10.0 0.00 0.00 0.00 56 1010.1
20260506153610 58 13 4.0 10.0 0.00 0.00 0.00 56 1010.1
20260506152903 58 0 4.0 11.0 0.00 0.00 0.00 56 1010.1
20260506152404 58 350 5.0 15.0 0.00 0.00 0.00 55 1010.1
20260506151906 58 34 5.0 15.0 0.00 0.00 0.00 53 1010.0
20260506151403 58 38 4.0 11.0 0.00 0.00 0.00 54 1010.0
20260506150906 58 20 3.0 10.0 0.00 0.00 0.00 53 1010.0
20260506150410 58 19 3.0 10.0 0.00 0.00 0.00 53 1010.0
20260506145905 58 76 5.0 12.0 0.00 0.00 0.00 54 1010.0
20260506145402 57 346 5.0 14.0 0.00 0.00 0.00 53 1009.9
20260506144909 58 55 4.0 14.0 0.00 0.00 0.00 55 1010.0
20260506144404 58 42 3.0 9.0 0.00 0.00 0.00 54 1010.0
20260506143906 58 28 3.0 9.0 0.00 0.00 0.00 55 1010.0
20260506143405 58 42 2.0 9.0 0.00 0.00 0.00 55 1010.0
20260506142908 58 44 2.0 8.0 0.00 0.00 0.00 56 1010.0
20260506142403 58 76 4.0 10.0 0.00 0.00 0.00 55 1009.9
20260506141905 58 32 5.0 11.0 0.00 0.00 0.00 54 1010.0
20260506141404 58 46 5.0 11.0 0.00 0.00 0.00 53 1010.0
20260506141204 58 14 4.0 11.0 0.00 0.00 0.00 52 1009.9
20260506141116 58 14 4.0 11.0 0.00 0.00 0.00 52 1009.9
20260506140405 58 76 4.0 13.0 0.00 0.00 0.00 52 1009.9
20260506135905 58 38 5.0 13.0 0.00 0.00 0.00 51 1009.9
20260506135403 58 36 5.0 12.0 0.00 0.00 0.00 52 1009.9
20260506134904 58 51 5.0 14.0 0.00 0.00 0.00 52 1009.9
20260506134404 58 56 6.0 14.0 0.00 0.00 0.00 52 1009.9
20260506133906 58 38 6.0 14.0 0.00 0.00 0.00 53 1009.9
20260506133403 58 44 6.0 15.0 0.00 0.00 0.00 51 1009.8
20260506132905 58 51 7.0 17.0 0.00 0.00 0.00 51 1009.8
20260506132404 58 42 6.0 17.0 0.00 0.00 0.00 49 1009.8
20260506132009 58 78 6.0 13.0 0.00 0.00 0.00 50 1009.8
20260506131943 58 57 5.0 13.0 0.00 0.00 0.00 50 1009.8
20260506131613 58 78 6.0 13.0 0.00 0.00 0.00 50 1009.8
20260506130904 58 42 6.0 16.0 0.00 0.00 0.00 51 1009.8
20260506130401 58 34 6.0 16.0 0.00 0.00 0.00 52 1009.7
20260506125905 58 71 6.0 14.0 0.00 0.00 0.00 53 1009.7
20260506125402 58 26 7.0 14.0 0.00 0.00 0.00 52 1009.7
20260506124904 58 69 5.0 14.0 0.00 0.00 0.00 52 1009.7
20260506124706 58 40 4.0 12.0 0.00 0.00 0.00 52 1009.8
20260506124612 58 40 4.0 12.0 0.00 0.00 0.00 52 1009.8
20260506123902 58 44 6.0 14.0 0.00 0.00 0.00 52 1009.7
20260506123403 58 53 7.0 17.0 0.00 0.00 0.00 52 1009.7
20260506123202 58 18 7.0 17.0 0.00 0.00 0.00 51 1009.7
20260506123113 58 18 7.0 17.0 0.00 0.00 0.00 51 1009.7
20260506122403 58 65 6.0 14.0 0.00 0.00 0.00 52 1009.7
20260506121906 58 68 5.0 14.0 0.00 0.00 0.00 52 1009.7
20260506121403 58 12 3.0 11.0 0.00 0.00 0.00 54 1009.6
20260506120904 58 38 4.0 12.0 0.00 0.00 0.00 54 1009.6
20260506120406 58 23 4.0 12.0 0.00 0.00 0.00 54 1009.6
20260506115906 58 46 4.0 12.0 0.00 0.00 0.00 54 1009.6
20260506115402 58 31 4.0 12.0 0.00 0.00 0.00 54 1009.6
20260506115206 58 38 4.0 12.0 0.00 0.00 0.00 54 1009.6
20260506115114 58 38 4.0 12.0 0.00 0.00 0.00 54 1009.6
20260506114402 58 71 5.0 15.0 0.00 0.00 0.00 55 1009.6
20260506113903 58 51 6.0 15.0 0.00 0.00 0.00 53 1009.7
20260506113405 58 50 6.0 12.0 0.00 0.00 0.00 53 1009.6
20260506112906 58 47 5.0 17.0 0.00 0.00 0.00 54 1009.6
20260506112405 58 27 6.0 17.0 0.00 0.00 0.00 55 1009.5
20260506111906 58 48 5.0 14.0 0.00 0.00 0.00 54 1009.6
20260506111404 58 12 4.0 11.0 0.00 0.00 0.00 53 1009.5
20260506110902 59 44 3.0 10.0 0.00 0.00 0.00 56 1009.5
20260506110402 58 28 3.0 13.0 0.00 0.00 0.00 57 1009.4
20260506105906 58 61 4.0 13.0 0.00 0.00 0.00 57 1009.4
20260506105404 57 355 4.0 13.0 0.00 0.00 0.00 59 1009.4
20260506104905 57 30 4.0 11.0 0.00 0.00 0.00 60 1009.4
20260506104405 56 24 5.0 11.0 0.00 0.00 0.00 63 1009.4
20260506104203 56 32 5.0 11.0 0.00 0.00 0.00 64 1009.4
20260506104113 56 32 5.0 11.0 0.00 0.00 0.00 64 1009.4
20260506103401 56 30 5.0 12.0 0.00 0.00 0.00 64 1009.4
20260506103006 56 44 5.0 11.0 0.00 0.00 0.00 62 1009.3
20260506102938 56 53 5.0 12.0 0.00 0.00 0.00 64 1009.4
20260506102612 56 44 5.0 11.0 0.00 0.00 0.00 62 1009.3
20260506101903 56 68 5.0 13.0 0.00 0.00 0.00 61 1009.4
20260506101402 56 57 5.0 13.0 0.00 0.00 0.00 61 1009.3
20260506100904 56 38 4.0 12.0 0.00 0.00 0.00 63 1009.3
20260506100657 57 46 4.0 12.0 0.00 0.00 0.00 63 1009.2
20260506100610 57 46 4.0 12.0 0.00 0.00 0.00 63 1009.2
20260506095906 56 42 4.0 12.0 0.00 0.00 0.00 65 1009.2
20260506095405 56 55 4.0 12.0 0.00 0.00 0.00 66 1009.1
20260506095207 56 28 5.0 13.0 0.00 0.00 0.00 71 1009.2
20260506095115 56 28 5.0 13.0 0.00 0.00 0.00 71 1009.2
20260506094401 56 40 6.0 15.0 0.00 0.00 0.00 72 1009.1
20260506093904 55 23 6.0 15.0 0.00 0.00 0.00 73 1009.1
20260506093403 55 13 6.0 14.0 0.00 0.00 0.00 75 1009.1
20260506093220 55 330 6.0 14.0 0.00 0.00 0.00 76 1009.1
20260506093113 55 330 6.0 14.0 0.00 0.00 0.00 76 1009.1
20260506092402 55 36 6.0 12.0 0.00 0.00 0.00 76 1009.1
20260506091905 55 23 5.0 14.0 0.00 0.00 0.00 77 1009.1
20260506091405 55 26 6.0 14.0 0.00 0.00 0.00 77 1009.0
20260506091004 55 346 6.0 13.0 0.00 0.00 0.00 78 1009.0
20260506090938 55 49 6.0 14.0 0.00 0.00 0.00 77 1009.0
20260506090613 55 346 6.0 13.0 0.00 0.00 0.00 78 1009.0
20260506085906 54 331 6.0 13.0 0.00 0.00 0.00 78 1009.0
20260506085402 54 90 6.0 12.0 0.00 0.00 0.00 77 1009.0
20260506084909 55 346 5.0 12.0 0.00 0.00 0.00 76 1009.0
20260506084402 55 5 5.0 12.0 0.00 0.00 0.00 75 1009.0
20260506083903 55 13 5.0 11.0 0.00 0.00 0.00 75 1009.0
20260506083403 55 38 5.0 12.0 0.00 0.00 0.00 75 1008.9
20260506083023 55 33 6.0 15.0 0.00 0.00 0.00 74 1008.9
20260506082952 55 38 6.0 13.0 0.00 0.00 0.00 74 1008.9
20260506082613 55 33 6.0 15.0 0.00 0.00 0.00 74 1008.9
20260506081903 55 340 6.0 15.0 0.00 0.00 0.00 73 1008.9
20260506081657 55 0 6.0 14.0 0.00 0.00 0.00 73 1008.9
20260506081610 55 0 6.0 14.0 0.00 0.00 0.00 73 1008.9
20260506081200 55 5 6.0 14.0 0.00 0.00 0.00 74 1008.9
20260506081112 55 5 6.0 14.0 0.00 0.00 0.00 74 1008.9
20260506080408 55 355 6.0 12.0 0.00 0.00 0.00 74 1008.9
20260506080401 55 26 6.0 12.0 0.00 0.00 0.00 74 1008.9
20260506073404 54 61 6.0 17.0 0.00 0.00 0.00 71 1008.8
20260506073355 54 63 6.0 17.0 0.00 0.00 0.00 71 1008.8
20260506072904 54 58 6.0 17.0 0.00 0.00 0.00 71 1008.8
20260506072854 54 48 6.0 17.0 0.00 0.00 0.00 71 1008.8
20260506072650 54 39 6.0 16.0 0.00 0.00 0.00 71 1008.7
20260506072605 54 69 6.0 16.0 0.00 0.00 0.00 71 1008.7
20260506072149 54 51 4.0 12.0 0.00 0.00 0.00 72 1008.7
20260506072104 54 51 4.0 12.0 0.00 0.00 0.00 72 1008.7
20260506071403 54 21 2.0 8.0 0.00 0.00 0.00 74 1008.7
20260506071351 54 42 2.0 8.0 0.00 0.00 0.00 74 1008.7
20260506070904 54 46 3.0 10.0 0.00 0.00 0.00 74 1008.7
20260506070846 54 44 3.0 10.0 0.00 0.00 0.00 75 1008.7
20260506070640 53 51 4.0 10.0 0.00 0.00 0.00 75 1008.6
20260506070557 53 51 3.0 10.0 0.00 0.00 0.00 75 1008.6
20260506062403 52 29 4.0 13.0 0.00 0.00 0.00 84 1008.5
20260506062332 52 34 4.0 13.0 0.00 0.00 0.00 84 1008.5
20260506061904 52 10 4.0 12.0 0.00 0.00 0.00 85 1008.5
20260506061834 52 355 4.0 12.0 0.00 0.00 0.00 85 1008.4
20260506061405 52 20 4.0 12.0 0.00 0.00 0.00 84 1008.4
20260506061332 52 350 4.0 12.0 0.00 0.00 0.00 84 1008.4
20260506060904 52 13 4.0 11.0 0.00 0.00 0.00 84 1008.3
20260506060831 52 28 4.0 11.0 0.00 0.00 0.00 84 1008.4
20260506060632 52 10 4.0 11.0 0.00 0.00 0.00 84 1008.3
20260506060551 52 17 4.0 11.0 0.00 0.00 0.00 84 1008.3
20260506051403 51 24 4.0 11.0 0.00 0.00 0.00 86 1008.3
20260506051331 51 17 4.0 11.0 0.00 0.00 0.00 86 1008.3
20260506050903 51 48 4.0 11.0 0.00 0.00 0.00 86 1008.3
20260506050829 51 341 4.0 11.0 0.00 0.00 0.00 86 1008.3
20260506050402 51 349 3.0 8.0 0.00 0.00 0.00 86 1008.3
20260506050332 51 15 3.0 8.0 0.00 0.00 0.00 86 1008.3
20260506044902 51 338 4.0 10.0 0.00 0.00 0.00 86 1008.4
20260506044826 51 349 4.0 10.0 0.00 0.00 0.00 86 1008.4
20260506044402 51 0 4.0 10.0 0.00 0.00 0.00 86 1008.3
20260506044322 51 355 4.0 10.0 0.00 0.00 0.00 86 1008.3
20260506043855 51 26 3.0 9.0 0.00 0.00 0.00 86 1008.4
20260506043823 51 347 3.0 9.0 0.00 0.00 0.00 86 1008.4
20260506043605 51 355 3.0 11.0 0.00 0.00 0.00 86 1008.4
20260506043527 51 23 3.0 11.0 0.00 0.00 0.00 86 1008.4
20260506043107 51 355 4.0 13.0 0.00 0.00 0.00 86 1008.4
20260506043028 50 355 4.0 13.0 0.00 0.00 0.00 86 1008.5
20260506042348 50 355 4.0 13.0 0.00 0.00 0.00 86 1008.5
20260506042306 50 10 4.0 13.0 0.00 0.00 0.00 86 1008.5
20260506041846 50 11 3.0 9.0 0.00 0.00 0.00 86 1008.4
20260506041806 50 32 3.0 9.0 0.00 0.00 0.00 86 1008.4
20260506041604 50 5 2.0 9.0 0.00 0.00 0.00 85 1008.5
20260506041524 50 355 2.0 9.0 0.00 0.00 0.00 85 1008.5
20260506040847 50 5 3.0 9.0 0.00 0.00 0.00 85 1008.4
20260506040805 50 348 3.0 9.0 0.00 0.00 0.00 85 1008.4
20260506040348 50 5 3.0 9.0 0.00 0.00 0.00 85 1008.5
20260506040307 50 24 3.0 9.0 0.00 0.00 0.00 85 1008.5
20260506035847 50 39 3.0 9.0 0.00 0.00 0.00 85 1008.5
20260506035804 50 19 3.0 10.0 0.00 0.00 0.00 85 1008.5
20260506035615 50 19 4.0 10.0 0.00 0.00 0.00 85 1008.5
20260506035522 50 38 4.0 10.0 0.00 0.00 0.00 85 1008.5
20260506034844 50 350 3.0 10.0 0.00 0.00 0.00 85 1008.5
20260506034804 50 34 3.0 10.0 0.00 0.00 0.00 85 1008.5
20260506034342 50 23 3.0 10.0 0.00 0.00 0.00 85 1008.5
20260506034303 50 355 3.0 10.0 0.00 0.00 0.00 85 1008.5
20260506033840 50 42 4.0 10.0 0.00 0.00 0.00 85 1008.6
20260506033802 51 48 4.0 10.0 0.00 0.00 0.00 85 1008.6
20260506033340 51 28 4.0 10.0 0.00 0.00 0.00 85 1008.6
20260506033305 51 19 4.0 10.0 0.00 0.00 0.00 85 1008.6
20260506032838 51 44 4.0 10.0 0.00 0.00 0.00 85 1008.6
20260506032801 51 5 4.0 10.0 0.00 0.00 0.00 85 1008.6
20260506032336 51 13 4.0 9.0 0.00 0.00 0.00 85 1008.7
20260506032306 51 18 4.0 9.0 0.00 0.00 0.00 85 1008.7
20260506031832 51 40 4.0 9.0 0.00 0.00 0.00 85 1008.6
20260506031805 51 336 4.0 9.0 0.00 0.00 0.00 85 1008.6
20260506031603 51 24 3.0 9.0 0.00 0.00 0.00 85 1008.7
20260506031523 51 14 3.0 9.0 0.00 0.00 0.00 85 1008.7
20260506030832 51 26 3.0 9.0 0.00 0.00 0.00 84 1008.7
20260506030805 51 32 3.0 9.0 0.00 0.00 0.00 84 1008.7
20260506030331 51 16 4.0 12.0 0.00 0.00 0.00 84 1008.8
20260506030303 51 22 4.0 12.0 0.00 0.00 0.00 84 1008.8